Location: Bothell
(47.7630°N, 122.2040°W)
Time: 09:44:57
(UTC-07:00)

Amateur Radio Satellites - All Passes

Search period start: 21 October 2014 09:14
Search period end: 22 October 2014 09:14
Location: Bothell, 47.7630°N, 122.2040°W

Satellite Date Start Highest point End Downlink Frequencies (MHz)
Time Altitude Azimuth
JAS-2 21 Oct 09:21:59 09:26:24 17° 311° (NW) 09:30:56 435.800 - 435.900 CW/SSB, 435.910 FM
HO-68 21 Oct 09:25:29 09:31:53 33° 95° (E) 09:38:14 435.675 MHz FM
SO-67 21 Oct 09:38:52 09:40:38 14° 297° (WNW) 09:42:23 435.3500 MHz FM
Saudisat 1A 21 Oct 09:58:21 10:02:42 61° 312° (NW) 10:07:05 436.775 MHz
MaSat-1 21 Oct 10:01:41 10:04:28 54° 57° (ENE) 10:06:59 437.345 MHz
UKube-1 21 Oct 10:04:59 10:08:27 22° 94° (E) 10:11:53 145.840 MHz, 145.915 MHz
RS-15 21 Oct 10:20:17 10:28:54 27° 257° (WSW) 10:37:49 29.354 - 29.394 USB, Beacon 29.352 USB
FUNcube-1 21 Oct 10:38:06 10:41:18 20° 91° (E) 10:44:27 145.950 - 145.970 MHz USB
Oscar 11 21 Oct 10:49:31 10:53:48 58° 101° (E) 10:58:02 145.825 FM, Beacon 2401.500 USB
HO-68 21 Oct 11:12:55 11:19:56 58° 295° (WNW) 11:26:55 435.675 MHz FM
Sapphire 21 Oct 11:26:44 11:29:28 14° 22° (NNE) 11:32:13 437.095 MHz 1200 baud AX-25 AFSK
ZACube-1 21 Oct 11:27:55 11:32:15 65° 101° (ESE) 11:36:26 437.345 MHz
Saudisat 1A 21 Oct 11:40:25 11:43:09 16° 333° (NNW) 11:45:54 436.775 MHz
UKube-1 21 Oct 11:40:40 11:44:48 42° 291° (WNW) 11:48:55 145.840 MHz, 145.915 MHz
Oscar 19 21 Oct 11:48:03 11:48:47 10° 51° (NE) 11:49:31 437.125 CW, 437.150 USB
PCSat 21 Oct 11:49:29 11:53:04 17° 29° (NNE) 11:56:37 145.825 MHz
JAS-1B 21 Oct 12:11:45 12:15:11 16° 53° (NE) 12:18:33 435.800 - 435.900 CW/SSB
FUNcube-1 21 Oct 12:13:49 12:17:56 44° 290° (WNW) 12:21:57 145.950 - 145.970 MHz USB
Oscar 11 21 Oct 12:26:44 12:29:33 17° 299° (WNW) 12:32:23 145.825 FM, Beacon 2401.500 USB
Oscar 16 21 Oct 12:29:19 12:33:17 23° 60° (ENE) 12:37:15 437.025 USB, Beacon 2401.1428
Oscar 10/S400 21 Oct 12:34:21 12:45:39 16° 147° (SSE) 12:56:03 145.825 - 145.975 CW/USB, Beacon 145.810 USB
KITSAT 1 21 Oct 12:40:16 12:47:18 34° 109° (ESE) 12:54:20 435.175 FM
Uribyol 2 21 Oct 12:43:25 12:46:19 15° 55° (NE) 12:49:14 436.500 FM
ITAMSAT 1 21 Oct 12:48:20 12:51:21 16° 55° (NE) 12:54:22 435.822 SSB
AO-Echo 21 Oct 12:55:06 12:58:32 19° 58° (ENE) 13:02:03 ?
HO-68 21 Oct 13:02:26 13:06:12 15° 316° (NW) 13:09:59 435.675 MHz FM
ZACube-1 21 Oct 13:05:32 13:08:08 16° 300° (WNW) 13:10:43 437.345 MHz
Sapphire 21 Oct 13:09:18 13:14:27 41° 46° (NE) 13:19:33 437.095 MHz 1200 baud AX-25 AFSK
SO-50 21 Oct 13:09:32 13:10:56 11° 107° (ESE) 13:12:20 436.795 FM
Oscar 19 21 Oct 13:22:02 13:27:05 58° 70° (ENE) 13:32:09 437.125 CW, 437.150 USB
AO-27 21 Oct 13:30:54 13:35:31 33° 64° (ENE) 13:40:09 436.795 MHz FM
PCSat 21 Oct 13:32:14 13:37:38 60° 52° (NE) 13:42:59 145.825 MHz
AO-7 21 Oct 13:41:48 13:46:20 16° 37° (NE) 13:50:52 29.400 - 29.500 MHz
JAS-1B 21 Oct 13:59:07 14:05:10 89° 255° (WSW) 14:10:52 435.800 - 435.900 CW/SSB
Oscar 16 21 Oct 14:07:09 14:12:15 59° 259° (W) 14:17:22 437.025 USB, Beacon 2401.1428
ISS 21 Oct 14:09:40 14:11:55 17° 137° (SE) 14:14:11 145.800 FM
Uribyol 2 21 Oct 14:19:48 14:25:02 85° 74° (ENE) 14:30:18 436.500 FM
Gurwin Techsat 1B 21 Oct 14:23:15 14:28:19 48° 68° (ENE) 14:33:26 435.225 FM
ITAMSAT 1 21 Oct 14:24:53 14:30:06 88° 74° (ENE) 14:35:22 435.822 SSB
AO-Echo 21 Oct 14:31:57 14:36:47 67° 258° (WSW) 14:41:49 ?
KITSAT 1 21 Oct 14:34:10 14:42:13 68° 310° (NW) 14:50:18 435.175 FM
TMSAT-1 21 Oct 14:36:56 14:41:59 47° 68° (ENE) 14:47:04 436.925 FM
SO-50 21 Oct 14:46:08 14:50:39 81° 126° (SE) 14:55:20 436.795 FM
Sapphire 21 Oct 14:52:50 14:57:53 40° 246° (WSW) 15:02:54 437.095 MHz 1200 baud AX-25 AFSK
UOSAT-12 21 Oct 14:52:56 14:54:40 12° 108° (ESE) 14:56:24 437.025 FM, 437.400 FM
Oscar 19 21 Oct 15:02:56 15:06:48 21° 269° (W) 15:10:42 437.125 CW, 437.150 USB
Saudisat 1A 21 Oct 15:03:52 15:06:10 14° 23° (NNE) 15:08:28 436.775 MHz
AO-27 21 Oct 15:10:06 15:14:57 39° 263° (W) 15:19:51 436.795 MHz FM
PCSat 21 Oct 15:16:19 15:20:39 25° 251° (WSW) 15:24:59 145.825 MHz
AO-7 21 Oct 15:29:24 15:37:19 53° 61° (ENE) 15:45:15 29.400 - 29.500 MHz
ISS 21 Oct 15:44:53 15:48:13 85° 156° (SSE) 15:51:35 145.800 FM
JAS-1B 21 Oct 15:54:02 15:56:44 13° 273° (W) 15:59:22 435.800 - 435.900 CW/SSB
Uribyol 2 21 Oct 16:02:22 16:05:11 15° 272° (W) 16:08:02 436.500 FM
Gurwin Techsat 1B 21 Oct 16:04:04 16:08:31 27° 267° (W) 16:13:00 435.225 FM
ITAMSAT 1 21 Oct 16:07:41 16:10:19 14° 273° (W) 16:12:58 435.822 SSB
JAS-2 21 Oct 16:08:17 16:12:38 21° 52° (NE) 16:17:19 435.800 - 435.900 CW/SSB, 435.910 FM
Uosat F 21 Oct 16:13:31 16:18:25 57° 70° (ENE) 16:23:22 435.120 FM
TMSAT-1 21 Oct 16:17:40 16:22:07 27° 267° (W) 16:26:37 436.925 FM
SO-50 21 Oct 16:28:09 16:31:47 23° 328° (NNW) 16:35:31 436.795 FM
UOSAT-12 21 Oct 16:29:21 16:34:01 81° 126° (SE) 16:38:46 437.025 FM, 437.400 FM
KITSAT 1 21 Oct 16:32:31 16:39:12 27° 336° (NNW) 16:45:55 435.175 FM
Hamsat 21 Oct 16:36:03 16:37:52 13° 59° (ENE) 16:39:42 145.90 MHz
Saudisat 1A 21 Oct 16:42:32 16:46:49 46° 45° (NE) 16:51:05 436.775 MHz
ISS 21 Oct 17:21:56 17:25:09 42° 355° (N) 17:28:21 145.800 FM
AO-7 21 Oct 17:22:32 17:30:16 43° 261° (W) 17:38:05 29.400 - 29.500 MHz
OPAL 21 Oct 17:39:37 17:43:39 24° 95° (E) 17:47:38 ?
JAS-2 21 Oct 17:50:50 17:56:43 88° 255° (WSW) 18:03:28 435.800 - 435.900 CW/SSB, 435.910 FM
Uosat F 21 Oct 17:53:50 17:57:34 21° 268° (W) 18:01:21 435.120 FM
Hamsat 21 Oct 18:09:00 18:13:14 81° 257° (WSW) 18:17:27 145.90 MHz
UOSAT-12 21 Oct 18:10:58 18:14:43 23° 327° (NNW) 18:18:32 437.025 FM, 437.400 FM
SO-50 21 Oct 18:12:58 18:14:06 11° 352° (N) 18:15:15 436.795 FM
Saudisat 1A 21 Oct 18:22:28 18:26:12 27° 244° (WSW) 18:29:54 436.775 MHz
KITSAT 1 21 Oct 18:31:48 18:37:43 21° 6° (N) 18:43:36 435.175 FM
SO-67 21 Oct 18:40:40 18:43:38 27° 69° (ENE) 18:46:36 435.3500 MHz FM
AO-40 21 Oct 18:47:41 00:17:09 36° 183° (S) 07:55:04 Beacon 2401.320
ISS 21 Oct 18:58:55 19:02:13 54° 15° (NNE) 19:05:30 145.800 FM
OPAL 21 Oct 19:17:59 19:22:48 49° 294° (WNW) 19:27:33 ?
STRAND 1 21 Oct 19:18:01 19:22:26 28° 94° (E) 19:26:49 ?
JAS-2 21 Oct 19:39:29 19:43:00 16° 278° (W) 19:46:44 435.800 - 435.900 CW/SSB, 435.910 FM
SO-50 21 Oct 19:54:34 19:56:48 13° 17° (NNE) 19:59:02 436.795 FM
UOSAT-12 21 Oct 19:55:23 19:56:36 11° 351° (N) 19:57:50 437.025 FM, 437.400 FM
HO-68 21 Oct 19:57:46 20:04:10 37° 59° (ENE) 20:10:36 435.675 MHz FM
SO-67 21 Oct 20:13:58 20:16:38 21° 266° (W) 20:19:19 435.3500 MHz FM
KITSAT 1 21 Oct 20:28:21 20:35:46 37° 35° (NE) 20:43:08 435.175 FM
ISS 21 Oct 20:35:43 20:38:53 40° 214° (SW) 20:42:02 145.800 FM
ZACube-1 21 Oct 20:54:25 20:56:03 12° 57° (ENE) 20:57:40 437.345 MHz
STRAND 1 21 Oct 20:56:54 21:01:48 44° 293° (WNW) 21:06:40 ?
UKube-1 21 Oct 21:03:32 21:07:22 31° 66° (ENE) 21:11:12 145.840 MHz, 145.915 MHz
SO-50 21 Oct 21:34:20 21:38:45 35° 40° (NE) 21:43:13 436.795 FM
UOSAT-12 21 Oct 21:36:47 21:38:53 13° 16° (NNE) 21:40:58 437.025 FM, 437.400 FM
FUNcube-1 21 Oct 21:37:19 21:41:11 27° 65° (ENE) 21:45:01 145.950 - 145.970 MHz USB
HO-68 21 Oct 21:44:40 21:51:39 54° 259° (W) 21:58:42 435.675 MHz FM
Oscar 11 21 Oct 21:47:35 21:51:53 70° 74° (ENE) 21:56:13 145.825 FM, Beacon 2401.500 USB
KITSAT 1 21 Oct 22:23:49 22:31:54 77° 239° (WSW) 22:39:56 435.175 FM
ZACube-1 21 Oct 22:27:06 22:31:42 79° 75° (ENE) 22:36:16 437.345 MHz
RS-15 21 Oct 22:34:59 22:44:56 42° 110° (ESE) 22:54:49 29.354 - 29.394 USB, Beacon 29.352 USB
UKube-1 21 Oct 22:39:40 22:43:31 31° 264° (W) 22:47:25 145.840 MHz, 145.915 MHz
FUNcube-1 21 Oct 23:13:08 23:17:26 38° 263° (W) 23:21:41 145.950 - 145.970 MHz USB
SO-50 21 Oct 23:14:50 23:19:27 45° 240° (WSW) 23:24:06 436.795 FM
UOSAT-12 21 Oct 23:16:08 23:20:27 33° 39° (NE) 23:24:43 437.025 FM, 437.400 FM
Oscar 11 21 Oct 23:26:27 23:28:34 13° 272° (W) 23:30:40 145.825 FM, Beacon 2401.500 USB
ZACube-1 22 Oct 00:06:31 00:08:39 13° 272° (W) 00:10:46 437.345 MHz
KITSAT 1 22 Oct 00:21:02 00:26:00 18° 259° (W) 00:30:57 435.175 FM
RS-15 22 Oct 00:45:49 00:56:43 68° 315° (NW) 01:07:43 29.354 - 29.394 USB, Beacon 29.352 USB
UOSAT-12 22 Oct 00:56:14 01:00:46 46° 240° (WSW) 01:05:12 437.025 FM, 437.400 FM
MaSat-1 22 Oct 01:17:04 01:21:15 86° 119° (ESE) 01:25:01 437.345 MHz
Oscar 10/S400 22 Oct 01:19:29 02:13:46 20° 237° (WSW) 04:30:30 145.825 - 145.975 CW/USB, Beacon 145.810 USB
Oscar 19 22 Oct 01:31:30 01:34:30 16° 88° (E) 01:37:29 437.125 CW, 437.150 USB
JAS-1B 22 Oct 01:38:31 01:43:15 21° 91° (E) 01:48:30 435.800 - 435.900 CW/SSB
Oscar 16 22 Oct 02:15:28 02:20:15 38° 97° (E) 02:24:59 437.025 USB, Beacon 2401.1428
Uribyol 2 22 Oct 02:29:47 02:33:56 23° 92° (E) 02:38:02 436.500 FM
ITAMSAT 1 22 Oct 02:34:56 02:39:11 24° 93° (E) 02:43:23 435.822 SSB
AO-Echo 22 Oct 02:35:39 02:40:25 33° 95° (E) 02:45:10 ?
Gurwin Techsat 1B 22 Oct 02:37:23 02:40:14 14° 87° (E) 02:43:05 435.225 FM
TMSAT-1 22 Oct 02:50:44 02:53:31 14° 87° (E) 02:56:17 436.925 FM
MaSat-1 22 Oct 02:55:21 02:57:24 14° 316° (NW) 02:59:21 437.345 MHz
RS-15 22 Oct 03:01:43 03:11:27 35° 346° (NNW) 03:21:22 29.354 - 29.394 USB, Beacon 29.352 USB
Oscar 19 22 Oct 03:09:19 03:14:27 78° 287° (WNW) 03:19:33 437.125 CW, 437.150 USB
AO-27 22 Oct 03:19:10 03:24:21 58° 101° (E) 03:29:30 436.795 MHz FM
OPAL 22 Oct 03:22:33 03:24:29 12° 50° (NE) 03:26:25 ?
JAS-1B 22 Oct 03:28:06 03:34:25 80° 288° (WNW) 03:41:55 435.800 - 435.900 CW/SSB
AO-7 22 Oct 03:30:58 03:32:42 11° 81° (E) 03:34:26 29.400 - 29.500 MHz
Oscar 16 22 Oct 03:54:59 03:59:32 33° 296° (WNW) 04:04:04 437.025 USB, Beacon 2401.1428
Sapphire 22 Oct 03:56:50 04:00:02 16° 104° (ESE) 04:03:15 437.095 MHz 1200 baud AX-25 AFSK
Uribyol 2 22 Oct 04:08:38 04:13:44 54° 291° (WNW) 04:18:47 436.500 FM
ITAMSAT 1 22 Oct 04:13:53 04:18:58 52° 291° (WNW) 04:24:00 435.822 SSB
AO-Echo 22 Oct 04:14:19 04:19:14 40° 293° (WNW) 04:24:10 ?
Gurwin Techsat 1B 22 Oct 04:15:34 04:20:56 86° 285° (WNW) 04:26:15 435.225 FM
PCSat 22 Oct 04:18:14 04:22:38 26° 109° (ESE) 04:27:04 145.825 MHz
Uosat F 22 Oct 04:19:30 04:21:55 13° 88° (E) 04:24:19 435.120 FM
TMSAT-1 22 Oct 04:28:49 04:34:10 87° 285° (WNW) 04:39:29 436.925 FM
Oscar 19 22 Oct 04:50:34 04:52:58 14° 306° (NW) 04:55:23 437.125 CW, 437.150 USB
JAS-2 22 Oct 04:57:21 05:01:37 15° 82° (E) 05:05:54 435.800 - 435.900 CW/SSB, 435.910 FM
OPAL 22 Oct 04:57:21 05:02:28 65° 69° (ENE) 05:07:32 ?
AO-27 22 Oct 04:59:24 05:03:29 24° 300° (WNW) 05:07:34 436.795 MHz FM
STRAND 1 22 Oct 05:03:41 05:03:58 10° 50° (NE) 05:04:16 ?
RS-15 22 Oct 05:17:34 05:27:35 38° 20° (NNE) 05:37:52 29.354 - 29.394 USB, Beacon 29.352 USB
AO-7 22 Oct 05:19:15 05:27:25 56° 102° (ESE) 05:35:33 29.400 - 29.500 MHz
JAS-1B 22 Oct 05:20:28 05:24:22 17° 306° (NW) 05:28:36 435.800 - 435.900 CW/SSB
Sapphire 22 Oct 05:37:17 05:42:43 87° 303° (WNW) 05:48:11 437.095 MHz 1200 baud AX-25 AFSK
Hamsat 22 Oct 05:52:37 05:54:51 14° 89° (E) 05:57:05 145.90 MHz
Uosat F 22 Oct 05:56:18 06:01:24 87° 286° (WNW) 06:06:27 435.120 FM
Gurwin Techsat 1B 22 Oct 05:57:05 06:00:08 16° 305° (NW) 06:03:12 435.225 FM
PCSat 22 Oct 06:00:22 06:05:42 58° 309° (NW) 06:11:05 145.825 MHz
TMSAT-1 22 Oct 06:10:15 06:13:20 16° 305° (NW) 06:16:26 436.925 FM
STRAND 1 22 Oct 06:37:05 06:42:05 56° 70° (ENE) 06:47:08 ?
OPAL 22 Oct 06:38:09 06:41:47 19° 267° (W) 06:45:24 ?
JAS-2 22 Oct 06:40:13 06:47:52 69° 102° (ESE) 06:55:42 435.800 - 435.900 CW/SSB, 435.910 FM
AO-7 22 Oct 07:12:24 07:20:00 42° 303° (WNW) 07:27:37 29.400 - 29.500 MHz
Sapphire 22 Oct 07:22:44 07:26:55 22° 325° (NW) 07:31:07 437.095 MHz 1200 baud AX-25 AFSK
Hamsat 22 Oct 07:27:04 07:31:13 62° 287° (WNW) 07:35:22 145.90 MHz
RS-15 22 Oct 07:30:44 07:41:54 78° 49° (NE) 07:53:30 29.354 - 29.394 USB, Beacon 29.352 USB
SO-67 22 Oct 07:33:29 07:36:08 20° 93° (E) 07:38:47 435.3500 MHz FM
Uosat F 22 Oct 07:36:40 07:39:27 15° 305° (NW) 07:42:14 435.120 FM
PCSat 22 Oct 07:46:50 07:50:19 17° 332° (NNW) 07:53:49 145.825 MHz
STRAND 1 22 Oct 08:17:43 08:21:38 22° 268° (W) 08:25:36 ?
JAS-2 22 Oct 08:25:52 08:32:23 33° 301° (WNW) 08:39:07 435.800 - 435.900 CW/SSB, 435.910 FM
Saudisat 1A 22 Oct 08:31:28 08:35:25 34° 118° (ESE) 08:39:24 436.775 MHz
SO-67 22 Oct 09:06:09 09:09:09 28° 291° (WNW) 09:12:09 435.3500 MHz FM
AO-7 22 Oct 09:07:15 09:10:37 13° 327° (NNW) 09:14:00 29.400 - 29.500 MHz
Sapphire 22 Oct 09:12:07 09:12:33 10° 351° (N) 09:12:59 437.095 MHz 1200 baud AX-25 AFSK
